TAP1438 LPPT-GMMN

Flight info

Callsign TAP1438
Flight time 1h 1m
Altitude 33000
Route DUZOP DCT AMSEL UR722 LAKAM
Aircraft A320/M-SDE3FGHIRWY/LB1

Departure

Time 2026-04-28 21:58
Airport Lisbon Humberto Delgado Airport (LPPT)

Arrival

Time 2026-04-28 23:00
Airport Mohammed V International Airport (GMMN)
Time Latitude Longitude Altitude Speed Heading
2026-04-28 21:28 38.76786 -9.13914 349 ft 0 kts 258°
2026-04-28 21:46 38.76785 -9.13915 344 ft 0 kts 258°
2026-04-28 21:46 38.76785 -9.13917 344 ft 0 kts 258°
2026-04-28 21:49 38.76785 -9.13916 344 ft 1 kts 258°
2026-04-28 21:49 38.76790 -9.13885 352 ft 4 kts 258°
2026-04-28 21:49 38.76796 -9.13853 349 ft 2 kts 258°
2026-04-28 21:50 38.76801 -9.13828 349 ft 4 kts 216°
2026-04-28 21:50 38.76814 -9.13823 349 ft 0 kts 168°
2026-04-28 21:50 38.76804 -9.13820 353 ft 0 kts 168°
2026-04-28 21:53 38.76791 -9.13817 353 ft 5 kts 168°
2026-04-28 21:54 38.76737 -9.13802 345 ft 10 kts 168°
2026-04-28 21:54 38.76674 -9.13785 344 ft 9 kts 168°
2026-04-28 21:54 38.76621 -9.13782 354 ft 8 kts 200°
2026-04-28 21:54 38.76594 -9.13857 348 ft 10 kts 257°
2026-04-28 21:55 38.76579 -9.13945 349 ft 10 kts 258°
2026-04-28 21:55 38.76565 -9.14031 349 ft 10 kts 258°
2026-04-28 21:55 38.76557 -9.14126 343 ft 12 kts 284°
2026-04-28 21:55 38.76583 -9.14203 338 ft 0 kts 292°
2026-04-28 21:57 38.76587 -9.14215 335 ft 4 kts 293°
2026-04-28 21:57 38.76608 -9.14279 333 ft 12 kts 293°
2026-04-28 21:57 38.76674 -9.14367 337 ft 16 kts
2026-04-28 21:57 38.76812 -9.14300 345 ft 37 kts 22°
2026-04-28 21:58 38.77075 -9.14159 356 ft 82 kts 22°
2026-04-28 21:58 38.77786 -9.13779 363 ft 137 kts 23°
2026-04-28 21:58 38.78782 -9.13237 559 ft 163 kts 21°
2026-04-28 21:58 38.79810 -9.12681 1283 ft 160 kts 21°
2026-04-28 21:59 38.81196 -9.11947 1991 ft 173 kts 24°
2026-04-28 21:59 38.82330 -9.11184 2336 ft 194 kts 33°
2026-04-28 21:59 38.83137 -9.10547 2536 ft 210 kts 33°
2026-04-28 22:00 38.85912 -9.08288 3342 ft 258 kts 34°
2026-04-28 22:00 38.87411 -9.06906 4005 ft 270 kts 44°
2026-04-28 22:00 38.88422 -9.04887 4848 ft 273 kts 73°
2026-04-28 22:00 38.88590 -9.02469 5657 ft 276 kts 99°
2026-04-28 22:01 38.87924 -9.00196 6463 ft 279 kts 125°
2026-04-28 22:01 38.86514 -8.98492 7273 ft 282 kts 152°
2026-04-28 22:01 38.84649 -8.97763 8087 ft 283 kts 175°
2026-04-28 22:01 38.82682 -8.97501 8923 ft 285 kts 175°
2026-04-28 22:02 38.80692 -8.97258 9762 ft 289 kts 176°
2026-04-28 22:02 38.78653 -8.97011 10290 ft 304 kts 175°
2026-04-28 22:02 38.76471 -8.96743 10525 ft 327 kts 175°
2026-04-28 22:02 38.74147 -8.96451 10928 ft 342 kts 175°
2026-04-28 22:03 38.71761 -8.96146 11613 ft 346 kts 175°
2026-04-28 22:03 38.69353 -8.95833 12360 ft 349 kts 175°
2026-04-28 22:03 38.66925 -8.95519 13108 ft 352 kts 175°
2026-04-28 22:03 38.64479 -8.95206 13833 ft 354 kts 175°
2026-04-28 22:04 38.62016 -8.94893 14487 ft 357 kts 175°
2026-04-28 22:04 38.59532 -8.94576 15135 ft 360 kts 175°
2026-04-28 22:04 38.57026 -8.94252 15777 ft 363 kts 175°
2026-04-28 22:04 38.54502 -8.93925 16405 ft 366 kts 175°
2026-04-28 22:05 38.51974 -8.93367 17003 ft 371 kts 167°
2026-04-28 22:05 38.49468 -8.92544 17612 ft 374 kts 167°
2026-04-28 22:05 38.46939 -8.91704 18221 ft 377 kts 167°
2026-04-28 22:05 38.44392 -8.90854 18750 ft 379 kts 167°
2026-04-28 22:06 38.41830 -8.90013 19296 ft 381 kts 167°
2026-04-28 22:06 38.39258 -8.89186 19851 ft 382 kts 167°
2026-04-28 22:06 38.36672 -8.88362 20408 ft 383 kts 167°
2026-04-28 22:06 38.34078 -8.87538 20951 ft 385 kts 167°
2026-04-28 22:07 38.31508 -8.86723 21478 ft 386 kts 168°
2026-04-28 22:07 38.28894 -8.85892 21998 ft 388 kts 167°
2026-04-28 22:07 38.26238 -8.85042 22526 ft 389 kts 167°
2026-04-28 22:07 38.23640 -8.84210 23027 ft 391 kts 168°
2026-04-28 22:08 38.20997 -8.83364 23517 ft 393 kts 168°
2026-04-28 22:08 38.18335 -8.82516 23911 ft 395 kts 168°
2026-04-28 22:08 38.15661 -8.81664 24287 ft 397 kts 168°
2026-04-28 22:08 38.12973 -8.80806 24662 ft 400 kts 168°
2026-04-28 22:09 38.10270 -8.79943 25023 ft 402 kts 168°
2026-04-28 22:09 38.07543 -8.79073 25378 ft 404 kts 168°
2026-04-28 22:09 38.04806 -8.78198 25729 ft 407 kts 168°
2026-04-28 22:09 38.02055 -8.77323 26078 ft 409 kts 168°
2026-04-28 22:10 37.99284 -8.76448 26421 ft 412 kts 168°
2026-04-28 22:10 37.96498 -8.75569 26768 ft 414 kts 168°
2026-04-28 22:10 37.93689 -8.74683 27114 ft 416 kts 168°
2026-04-28 22:10 37.90871 -8.73790 27456 ft 419 kts 168°
2026-04-28 22:11 37.88037 -8.72890 27790 ft 421 kts 168°
2026-04-28 22:11 37.85185 -8.71986 28111 ft 424 kts 168°
2026-04-28 22:11 37.82318 -8.71079 28414 ft 426 kts 168°
2026-04-28 22:11 37.79471 -8.70179 28707 ft 429 kts 168°
2026-04-28 22:12 37.76566 -8.69267 28992 ft 431 kts 168°
2026-04-28 22:12 37.73644 -8.68350 29276 ft 433 kts 168°
2026-04-28 22:12 37.70709 -8.67428 29562 ft 436 kts 168°
2026-04-28 22:12 37.67758 -8.66500 29843 ft 438 kts 168°
2026-04-28 22:13 37.64789 -8.65565 30084 ft 441 kts 168°
2026-04-28 22:13 37.61806 -8.64627 30323 ft 442 kts 168°
2026-04-28 22:13 37.58821 -8.63687 30645 ft 442 kts 168°
2026-04-28 22:13 37.55836 -8.62749 30947 ft 443 kts 168°
2026-04-28 22:14 37.52841 -8.61810 31242 ft 443 kts 168°
2026-04-28 22:14 37.49851 -8.60876 31537 ft 444 kts 168°
2026-04-28 22:14 37.46852 -8.59939 31835 ft 444 kts 169°
2026-04-28 22:14 37.43851 -8.59002 32123 ft 445 kts 169°
2026-04-28 22:15 37.40840 -8.58063 32406 ft 445 kts 169°
2026-04-28 22:15 37.37831 -8.57124 32701 ft 446 kts 169°
2026-04-28 22:15 37.34855 -8.56196 32874 ft 447 kts 169°
2026-04-28 22:16 37.28845 -8.54317 32907 ft 444 kts 169°
2026-04-28 22:16 37.22847 -8.52449 32902 ft 444 kts 169°
2026-04-28 22:17 37.16826 -8.50703 32902 ft 444 kts 171°
2026-04-28 22:17 37.10768 -8.49119 32904 ft 445 kts 171°
2026-04-28 22:18 37.04706 -8.47548 32898 ft 445 kts 171°
2026-04-28 22:18 36.98643 -8.45931 32889 ft 445 kts 171°
2026-04-28 22:19 36.92603 -8.44310 32884 ft 446 kts 171°
2026-04-28 22:19 36.86530 -8.42690 32876 ft 446 kts 171°
2026-04-28 22:20 36.80454 -8.41072 32875 ft 447 kts 171°
2026-04-28 22:20 36.74355 -8.39459 32873 ft 448 kts 171°
2026-04-28 22:21 36.68249 -8.37846 32879 ft 449 kts 171°
2026-04-28 22:21 36.62131 -8.36229 32882 ft 450 kts 171°
2026-04-28 22:22 36.55994 -8.34604 32880 ft 451 kts 171°
2026-04-28 22:22 36.49848 -8.32982 32882 ft 452 kts 171°
2026-04-28 22:23 36.43694 -8.31363 32882 ft 452 kts 171°
2026-04-28 22:23 36.37583 -8.29762 32881 ft 452 kts 171°
2026-04-28 22:24 36.31424 -8.28144 32883 ft 452 kts 171°
2026-04-28 22:24 36.25260 -8.26520 32890 ft 453 kts 171°
2026-04-28 22:25 36.19097 -8.24902 32889 ft 453 kts 171°
2026-04-28 22:25 36.12921 -8.23295 32890 ft 454 kts 171°
2026-04-28 22:26 36.06731 -8.21687 32890 ft 455 kts 171°
2026-04-28 22:26 36.00536 -8.20074 32894 ft 455 kts 171°
2026-04-28 22:27 35.94330 -8.18458 32895 ft 456 kts 171°
2026-04-28 22:27 35.88116 -8.16851 32899 ft 456 kts 171°
2026-04-28 22:28 35.81901 -8.15237 32904 ft 457 kts 171°
2026-04-28 22:28 35.75683 -8.13619 32898 ft 457 kts 171°
2026-04-28 22:29 35.69449 -8.12006 32904 ft 457 kts 171°
2026-04-28 22:29 35.63254 -8.10416 32907 ft 458 kts 171°
2026-04-28 22:30 35.57008 -8.08807 32908 ft 458 kts 171°
2026-04-28 22:30 35.50766 -8.07202 32910 ft 459 kts 171°
2026-04-28 22:31 35.44514 -8.05594 32917 ft 459 kts 171°
2026-04-28 22:31 35.38258 -8.03995 32912 ft 459 kts 171°
2026-04-28 22:32 35.32001 -8.02387 32909 ft 460 kts 171°
2026-04-28 22:32 35.25767 -8.00794 32911 ft 460 kts 171°
2026-04-28 22:33 35.19487 -7.99192 32913 ft 461 kts 171°
2026-04-28 22:33 35.13197 -7.97593 32912 ft 462 kts 171°
2026-04-28 22:34 35.06899 -7.95991 32917 ft 462 kts 171°
2026-04-28 22:34 35.00606 -7.94387 32919 ft 462 kts 171°
2026-04-28 22:35 34.94297 -7.92785 32921 ft 463 kts 171°
2026-04-28 22:35 34.87984 -7.91202 32925 ft 463 kts 171°
2026-04-28 22:36 34.81670 -7.89616 32930 ft 463 kts 171°
2026-04-28 22:36 34.75354 -7.88016 32929 ft 463 kts 171°
2026-04-28 22:37 34.69044 -7.86422 32927 ft 463 kts 171°
2026-04-28 22:37 34.62769 -7.84836 32923 ft 463 kts 171°
2026-04-28 22:38 34.56446 -7.83256 32924 ft 463 kts 171°
2026-04-28 22:38 34.50131 -7.81674 32928 ft 463 kts 171°
2026-04-28 22:39 34.43813 -7.80089 32923 ft 463 kts 171°
2026-04-28 22:39 34.37490 -7.78514 32921 ft 464 kts 171°
2026-04-28 22:40 34.31193 -7.76946 32924 ft 464 kts 171°
2026-04-28 22:40 34.28029 -7.76156 32468 ft 466 kts 171°
2026-04-28 22:40 34.24818 -7.75358 31102 ft 474 kts 171°
2026-04-28 22:40 34.21583 -7.74554 29862 ft 472 kts 171°
2026-04-28 22:41 34.18423 -7.73840 29476 ft 453 kts 175°
2026-04-28 22:41 34.15310 -7.73496 28860 ft 446 kts 178°
2026-04-28 22:41 34.12232 -7.73207 28258 ft 441 kts 178°
2026-04-28 22:41 34.09189 -7.72930 27669 ft 436 kts 178°
2026-04-28 22:42 34.06176 -7.72659 27080 ft 432 kts 178°
2026-04-28 22:42 34.03193 -7.72392 26508 ft 427 kts 178°
2026-04-28 22:42 34.00242 -7.72126 25937 ft 423 kts 178°
2026-04-28 22:42 33.97312 -7.71861 25372 ft 419 kts 178°
2026-04-28 22:43 33.94454 -7.71601 24825 ft 416 kts 178°
2026-04-28 22:43 33.91583 -7.71335 24281 ft 412 kts 178°
2026-04-28 22:43 33.88742 -7.71071 23760 ft 408 kts 178°
2026-04-28 22:43 33.85924 -7.70810 23204 ft 404 kts 178°
2026-04-28 22:44 33.83148 -7.70552 22711 ft 397 kts 178°
2026-04-28 22:44 33.80405 -7.70300 22242 ft 392 kts 178°
2026-04-28 22:44 33.77706 -7.70054 21794 ft 386 kts 178°
2026-04-28 22:44 33.75041 -7.69810 21348 ft 381 kts 178°
2026-04-28 22:45 33.72407 -7.69569 20911 ft 377 kts 178°
2026-04-28 22:45 33.69841 -7.69334 20481 ft 373 kts 178°
2026-04-28 22:45 33.67267 -7.69096 20036 ft 370 kts 178°
2026-04-28 22:45 33.64715 -7.68860 19595 ft 367 kts 178°
2026-04-28 22:46 33.62173 -7.68625 19136 ft 365 kts 178°
2026-04-28 22:46 33.59649 -7.68393 18680 ft 363 kts 178°
2026-04-28 22:46 33.57132 -7.68164 18210 ft 362 kts 178°
2026-04-28 22:46 33.54621 -7.67938 17703 ft 361 kts 178°
2026-04-28 22:47 33.52126 -7.67764 17241 ft 357 kts 182°
2026-04-28 22:47 33.49662 -7.67970 16781 ft 353 kts 187°
2026-04-28 22:47 33.47219 -7.68233 16322 ft 351 kts 187°
2026-04-28 22:47 33.44791 -7.68488 15865 ft 350 kts 186°
2026-04-28 22:48 33.43186 -7.68653 15564 ft 348 kts 186°
2026-04-28 22:48 33.40777 -7.68898 15112 ft 347 kts 186°
2026-04-28 22:48 33.38380 -7.69144 14658 ft 345 kts 186°
2026-04-28 22:48 33.35993 -7.69392 14206 ft 343 kts 186°
2026-04-28 22:49 33.33616 -7.69640 13749 ft 342 kts 186°
2026-04-28 22:49 33.31250 -7.69886 13245 ft 340 kts 186°
2026-04-28 22:49 33.28902 -7.70131 12793 ft 338 kts 186°
2026-04-28 22:49 33.26567 -7.70378 12329 ft 335 kts 186°
2026-04-28 22:50 33.24248 -7.70623 11865 ft 333 kts 186°
2026-04-28 22:50 33.22017 -7.71151 11406 ft 329 kts 199°
2026-04-28 22:50 33.19968 -7.72225 10904 ft 316 kts 205°
2026-04-28 22:50 33.17962 -7.73176 10465 ft 305 kts 199°
2026-04-28 22:51 33.15958 -7.73847 10050 ft 294 kts 193°
2026-04-28 22:51 33.13960 -7.74256 9848 ft 291 kts 187°
2026-04-28 22:51 33.11936 -7.74428 9719 ft 291 kts 181°
2026-04-28 22:51 33.09912 -7.74356 9586 ft 290 kts 175°
2026-04-28 22:52 33.07957 -7.73856 9448 ft 289 kts 155°
2026-04-28 22:52 33.06402 -7.72370 8897 ft 288 kts 124°
2026-04-28 22:52 33.05698 -7.70178 8315 ft 285 kts 96°
2026-04-28 22:52 33.05945 -7.67862 7739 ft 284 kts 71°
2026-04-28 22:53 33.06643 -7.65688 7176 ft 284 kts 70°
2026-04-28 22:53 33.07367 -7.63486 6616 ft 287 kts 70°
2026-04-28 22:53 33.08098 -7.61259 6091 ft 285 kts 70°
2026-04-28 22:53 33.08818 -7.59065 5439 ft 282 kts 70°
2026-04-28 22:54 33.09526 -7.56901 4877 ft 277 kts 69°
2026-04-28 22:54 33.10198 -7.54841 4740 ft 254 kts 69°
2026-04-28 22:54 33.10905 -7.53009 4678 ft 237 kts 54°
2026-04-28 22:54 33.12116 -7.51709 4599 ft 235 kts 27°
2026-04-28 22:55 33.13661 -7.51167 4483 ft 232 kts
2026-04-28 22:55 33.15239 -7.51431 4375 ft 230 kts 342°
2026-04-28 22:55 33.16775 -7.51959 4281 ft 230 kts 342°
2026-04-28 22:55 33.18314 -7.52486 4054 ft 229 kts 343°
2026-04-28 22:56 33.19840 -7.53007 3772 ft 227 kts 343°
2026-04-28 22:56 33.21352 -7.53522 3478 ft 222 kts 342°
2026-04-28 22:56 33.22760 -7.54002 3196 ft 207 kts 342°
2026-04-28 22:56 33.24128 -7.54469 2932 ft 201 kts 342°
2026-04-28 22:57 33.25454 -7.54922 2687 ft 193 kts 343°
2026-04-28 22:57 33.26705 -7.55349 2426 ft 181 kts 343°
2026-04-28 22:57 33.27878 -7.55750 2182 ft 170 kts 343°
2026-04-28 22:57 33.28972 -7.56124 1986 ft 155 kts 343°
2026-04-28 22:58 33.29975 -7.56467 1766 ft 146 kts 343°
2026-04-28 22:58 33.30936 -7.56795 1574 ft 142 kts 343°
2026-04-28 22:58 33.31881 -7.57120 1384 ft 141 kts 342°
2026-04-28 22:58 33.32821 -7.57439 1189 ft 140 kts 342°
2026-04-28 22:59 33.33753 -7.57757 1038 ft 140 kts 343°
2026-04-28 22:59 33.34688 -7.58076 828 ft 139 kts 343°
2026-04-28 22:59 33.35613 -7.58392 663 ft 134 kts 342°
2026-04-28 22:59 33.36408 -7.58676 650 ft 98 kts 343°
2026-04-28 23:00 33.36897 -7.58849 652 ft 49 kts 345°
2026-04-28 23:00 33.37203 -7.58949 652 ft 43 kts 343°
2026-04-28 23:00 33.37475 -7.59038 650 ft 39 kts 345°
2026-04-28 23:00 33.37721 -7.59121 646 ft 24 kts 343°
2026-04-28 23:01 33.37818 -7.59084 645 ft 8 kts 62°
2026-04-28 23:01 33.37828 -7.59042 647 ft 2 kts 76°
2026-04-28 23:01 33.37833 -7.59020 649 ft 6 kts 76°
2026-04-28 23:01 33.37846 -7.58961 651 ft 6 kts 74°
2026-04-28 23:02 33.37856 -7.58925 652 ft 3 kts 71°
2026-04-28 23:02 33.37865 -7.58898 653 ft 5 kts 68°
2026-04-28 23:02 33.37879 -7.58837 655 ft 10 kts 77°
2026-04-28 23:02 33.37903 -7.58734 653 ft 14 kts 73°
2026-04-28 23:03 33.37893 -7.58619 653 ft 17 kts 123°
2026-04-28 23:03 33.37820 -7.58515 653 ft 14 kts 131°
2026-04-28 23:03 33.37736 -7.58463 654 ft 15 kts 164°
2026-04-28 23:03 33.37619 -7.58437 653 ft 13 kts 177°
2026-04-28 23:04 33.37524 -7.58411 653 ft 15 kts 164°
2026-04-28 23:04 33.37326 -7.58346 656 ft 9 kts 165°
2026-04-28 23:04 33.37292 -7.58328 653 ft 6 kts 131°
2026-04-28 23:05 33.37303 -7.58264 654 ft 7 kts 65°
2026-04-28 23:05 33.37315 -7.58235 653 ft 1 kts 66°
2026-04-28 23:05 33.37315 -7.58233 653 ft 0 kts 66°